Content
SEND FEEDBACK

Daily
Averages
Monthly
Summary
United States of America

LANESBORO, MASSACHUSETTS


Home > North America > United States > Massachusetts
Elevation: 1240 feet     Latitude: 42 33N     Longitude: 073 14W

WEATHER
 
SELECT A DAY
Number of Records: 186,266;   Date Range: 1/20/99 - 7/7/14
 
SHARE

PRINT THIS DATA

[ ← Previous Day ]
WEATHER ALMANAC - JANUARY 3, 2013
[ Next Day → ]
[ °C ]   °F
Weather ElementAverageHighLow
Temperature11.4 °F19 °F (2:54 pm) (1:54 am)
Dewpoint1.7 °F14 °F (11:54 pm)-9.9 °F (4:54 am)
Humidity65.4 %84 % (11:54 pm)53 % (8:54 am)
Barometer30.09 in30.20 in (1:54 am)29.94 in (10:38 pm)
Wind Speed3.5 mph13.8 mph (10:54 am)
Weather ElementAverage
Visibility9.3 mi
Wind DirectionSE (139.2 °)

Weather ElementTotal
Precipitation---
Heating Degree Days55.5 (Base 65)
Averaged from 24 records on January 3, 2013
WEATHER CONDITIONS BREAKOUT
WIND DIRECTION BREAKOUT
WEATHER BY HOUR - JANUARY 3, 2013
[ °C ]   °F
Local TimeTemperatureDewpointHumidityBarometerVisibilityWind DirectionWind SpeedGust SpeedPrecipitationEventsConditions
1:54 AM0.0 °F-7.1 °F72 %30.20 in10.0 miWest (270°)5.8 mphClear
2:54 AM0.0 °F-9.0 °F66 %30.19 in10.0 miWSW (240°)3.5 mphClear
3:54 AM0.0 °F-9.0 °F66 %30.17 in10.0 miWSW (250°)4.6 mphClear
4:54 AM0.0 °F-9.9 °F63 %30.16 in10.0 miCalmClear
5:54 AM0.0 °F-9.0 °F66 %30.15 in10.0 miSSW (210°)4.6 mphClear
6:54 AM1.9 °F-9.9 °F58 %30.17 in10.0 miCalmClear
7:54 AM3.9 °F-9.0 °F55 %30.16 in10.0 miCalmClear
8:54 AM7.0 °F-7.1 °F53 %30.16 in10.0 miWNW (290°)4.6 mphClear
9:54 AM9.0 °F-5.1 °F53 %30.17 in10.0 miNW (310°)10.4 mphClear
10:54 AM12.0 °F0.0 °F59 %30.14 in10.0 miWNW (290°)13.8 mphClear
11:54 AM14.0 °F1.9 °F59 %30.12 in10.0 miWNW (300°)9.2 mphClear
12:54 PM16.0 °F5.0 °F62 %30.09 in10.0 miNW (320°)6.9 mphClear
1:54 PM17.1 °F7.0 °F65 %30.06 in10.0 miCalmPartly Cloudy
2:54 PM19.0 °F7.0 °F59 %30.05 in10.0 miNW (320°)5.8 mphMostly Cloudy
3:54 PM18.0 °F8.1 °F65 %30.06 in10.0 miWest (260°)8.1 mphClear
4:54 PM17.1 °F7.0 °F65 %30.05 in10.0 miCalmOvercast
5:54 PM16.0 °F6.1 °F65 %30.06 in10.0 miCalmOvercast
6:54 PM16.0 °F7.0 °F68 %30.05 in10.0 miCalmOvercast
7:54 PM16.0 °F8.1 °F71 %30.05 in10.0 miCalmOvercast
8:54 PM19.0 °F9.0 °F65 %30.04 in10.0 miWest (280°)6.9 mphOvercast
9:54 PM18.0 °F10.9 °F74 %30.02 in5.0 miCalm0.00 inSnowLight Snow
10:38 PM17.6 °F12.2 °F79 %29.94 in4.0 miCalm0.00 inSnowLight Snow
10:54 PM18.0 °F12.0 °F78 %30.01 in8.0 miCalm0.00 inOvercast
11:54 PM18.0 °F14.0 °F84 %29.99 in5.0 miCalm0.00 inSnowLight Snow
Hourly data recorded from KPSF, located miles away from Lanesboro, Massachusetts







STORIES FROM OUR PARTNERS